Regional Weather Roundup
Issued by NWS Sterling, VA

Home | Current Version | Previous Version | Text Only | Print | Product List | Glossary Off
Versions: 1 2 3 4 5 6 7 8 9 10 11 12 13 14 15 16 17 18 19 20 21 22 23 24 25 26 27 28

000
ASUS41 KLWX 260910
RWRLWX

REGIONAL WEATHER ROUNDUP
NATIONAL WEATHER SERVICE BALTIMORE MD/WASHINGTON DC
400 AM EST SUN FEB 26 2017

Note: "FAIR" indicates few or no clouds below 12,000 feet
with no significant weather and/or obstructions to visibility.
 TC=TEMPERATURE CELSIUS

 * =Non NWS site. Station does not report precipitation (e.g. rain,
    snow, etc.), thunder, or fog.

DCZ001-MDZ009-015-VAZ040>042-051-053>054-261000-
WASHINGTON METRO

CITY           SKY/WX    TMP DP  RH WIND       PRES   REMARKS
WASHINGTON NAT MOCLDY    39  20  46 NW21      29.97R WCI  29
DULLES         PTCLDY    34  17  50 W10       29.97R WCI  26
ANDREWS AFB    MOCLDY    37  20  49 NW18G24   29.93R WCI  27
FT BELVOIR     CLEAR     37  18  45 NW12      29.97R
QUANTICO       CLEAR     38  22  52 N21G26    29.98R WCI  28
COLLEGE PARK*  PTCLDY    36  19  51 W8G20     29.96R
LEESBURG*      CLOUDY    36  23  60 MISG      29.98R
MANASSAS*      PTCLDY    35  19  52 N12G18    29.98R WCI  27
GAITHERSBURG*  CLOUDY    36  18  48 NW17      29.98R WCI  25

$$

MDZ006>007-011-014-261000-
BALTIMORE METRO

CITY           SKY/WX    TMP DP  RH WIND       PRES   REMARKS
BWI AIRPORT    MOCLDY    37  22  54 NW13G20   29.94R WCI  29
MD SCIENCE CTR   N/A     39  19  44 MISG      29.92R
MARTIN STATE   CLOUDY    37  27  65 W18G29    29.95R WCI  27
ANNAPOLIS      CLOUDY    40  23  50 W13G20    29.94R
FORT MEADE*    CLOUDY    36  23  60 W15G23    29.97R WCI  26

$$

MDZ012-015-019>023-261000-
MARYLAND EASTERN SHORE

CITY           SKY/WX    TMP DP  RH WIND       PRES   REMARKS
OCEAN CITY     CLEAR     41  25  53 NW14      29.89R
SALISBURY      CLEAR     40  27  59 NW10      29.90R
BAY BRIDGE AP* CLOUDY    39  23  52 W15G23    29.94R
CAMBRIDGE*     CLEAR     41  23  48 NW14G23   29.93R
EASTON*        CLEAR     40  22  49 NW15      29.96R

$$

MDZ017>025-261000-
SOUTHERN MARYLAND

CITY           SKY/WX    TMP DP  RH WIND       PRES   REMARKS
PATUXENT RIVER CLEAR     39  24  55 W16       29.93R
ST INIGOES     CLEAR     41  23  48 NW13G26   29.92R
LEONARDTOWN*   CLEAR     37  23  56 W8        29.96R

$$

MDZ003>005-261000-
NORTH CENTRAL MARYLAND

CITY           SKY/WX    TMP DP  RH WIND       PRES   REMARKS
FREDERICK*     CLOUDY    34  21  60 NW10G20   29.99R WCI  26
HAGERSTOWN APT CLOUDY    34  18  52 NW13      29.95R WCI  25
WESTMINSTER*   CLOUDY    34  21  60 NW10G17   29.92R WCI  26

$$

MDZ501>502-261000-
WESTERN MARYLAND

CITY           SKY/WX    TMP DP  RH WIND       PRES   REMARKS
OAKLAND*       CLOUDY    19  14  79 W13G26    29.88R HAZE    WCI   7
CUMBERLAND*    CLOUDY    32  14  47 W17       30.04R WCI  21

$$

VAZ025>031-261000-
SHENANDOAH VALLEY

CITY           SKY/WX    TMP DP  RH WIND       PRES   REMARKS
WINCHESTER*    CLOUDY    32  16  51 W12       29.98R WCI  23
FRONT ROYAL*   CLEAR     32  16  51 W6        29.96R
LURAY*         PTCLDY    34  21  60 W9        29.97R WCI  26
NEW MARKET*    CLOUDY    31  16  54 CALM      29.96R
STAUNTON*      CLEAR     29  16  57 NW5       29.97R
WAYNESBORO*    CLEAR     30  15  53 SW7       29.93S

$$

WVZ021-048>050-054>055-261000-
EASTERN WEST VIRGINIA PANHANDLE

CITY           SKY/WX    TMP DP  RH WIND       PRES   REMARKS
MARTINSBURG    PTCLDY    33  13  43 W21G30    29.97R WCI  21
PETERSBURG*    CLOUDY    33  17  51 NW14G20   30.00R WCI  23

$$

VAZ036>039-050-261000-
CENTRAL FOOTHILLS

CITY           SKY/WX    TMP DP  RH WIND       PRES   REMARKS
CHARLOTTESVILL CLEAR     36  17  46 CALM      29.96R
CULPEPER*      MOCLDY    36  22  56 NE3       29.99R
ORANGE*        CLEAR     36  18  48 W7        29.98R
GORDONSVILLE*  CLEAR     36  20  52 N5        29.96R
WARRENTON*     PTCLDY    37  17  44 NW12      29.96R WCI  29

$$

VAZ055>057-261000-
NORTH AND CENTRAL PIEDMONT

CITY           SKY/WX    TMP DP  RH WIND       PRES   REMARKS
FREDERICKSBRG* CLEAR     39  26  58 N5        29.96R
STAFFORD*      CLEAR     35  23  61 CALM      30.00R

$$

NCZ024-NYZ072-PAZ021-071-VAZ022-071-261000-
OTHER REGIONAL OBSERVATIONS

CITY           SKY/WX    TMP DP  RH WIND       PRES   REMARKS
NEW YORK CITY  CLOUDY    39  24  55 NW12G21   29.80R
PHILADELPHIA   PTCLDY    39  20  46 W14       29.88R
PITTSBURGH     FLURRIES  26  19  74 W6        29.99S
ROANOKE        CLEAR     33  17  51 W10       30.02R WCI  25
RICHMOND       CLEAR     40  23  50 NW7       29.95R
RALEIGH        CLEAR     42  17  36 VRB3      30.00R

$$

ANZ530>537-261000-
MARINE OBSERVATIONS

STATION/POSITION TIME  TEMP    WIND        PRES
                       AIR SEA DIR/SP/G
                 (UTC) (F)     (DEG/KT/KT) (MB)
THOMAS PT LIGHT  0900   39 44  300/ 19/ 22   N/A
BALT KEY BRIDGE  0848   39     290/ 18/ 21 1013.3R
COVE POINT       0848   41     330/ 16/ 20 1014.2R
LEWISETTA        0848   42 50  340/ 15/ 22 1013.4R
SOLOMONS ISLAND  0842   41 45  300/ 11/ 16   N/A
PINEY POINT      0848          350/ 24/ 27   N/A

$$





USA.gov is the U.S. government's official web portal to all federal, state and local government web resources and services.